Simultaneous Nadir Overpasses (SNOs) Predictions

Prediction of SNOs between GOES-15 and METOP-C Satellite Orbit:

Table of predicted SNOs for the next 14.0 days since TLE Epoch: 4/20/2024
Index Date Time (GOES-15) GOES-15 Lat,Lon METOP-C Lat,Lon Distance(km) Time Diff (sec)
1 04/21/2024 05:32:26 -0.13, 61.33 0.42, 58.99 267.55 80
2 04/22/2024 05:14:28 -0.13, 61.34 -0.70, 63.98 300.43 80
3 04/23/2024 17:33:29 0.13, 61.32 -0.31, 59.39 220.81 80
4 04/24/2024 17:12:51 0.13, 61.34 0.81, 64.38 346.63 80
5 04/26/2024 05:29:04 -0.14, 61.40 0.21, 59.82 180.62 80
6 04/27/2024 05:11:06 -0.14, 61.42 -0.92, 64.81 386.44 80
7 04/28/2024 17:30:06 0.15, 61.41 -0.12, 60.22 136.04 80
8 04/29/2024 17:06:47 0.15, 61.44 1.02, 65.21 430.50 80
9 05/01/2024 05:25:40 -0.16, 61.51 0.03, 60.65 97.84 80
10 05/02/2024 05:07:40 -0.16, 61.54 -1.07, 65.66 468.75 80
11 05/03/2024 17:26:41 0.16, 61.54 0.06, 61.06 53.89 80
